User: anonymous   Login
Location: Vancouver
(49.2827°N, 123.1207°W)
Time: 13:03:01
(UTC-07:00)
Language:

ISS - Orbit

View from above orbital plane
View from above orbital plane
View from above satellite
View from above satellite

Ground track
Ground track

The orbit data is extracted from the following two-line orbital elements,

1 25544U 98067A   20224.61922780  .00016717  00000-0  10270-3 0  9091
2 25544  51.6405  74.1309 0001258  16.3824 343.7366 15.49114044 40602
Epoch (UTC): 11 August 2020 14:51:41
Eccentricity: 0.0001258
inclination: 51.6405°
perigee height: 418 km
apogee height: 420 km
right ascension of ascending node: 74.1309°
argument of perigee: 16.3824°
revolutions per day: 15.49114044
mean anomaly at epoch: 343.7366°
orbit number at epoch: 4060

The dashed part of the orbit path shows where the satellite is in the earth's shadow,  

DLR